SCP
0 0 0 0 0 0 0 0 0 0 0 0 0 0 0 0 0 0 0 0 0 0 0 0 0 0 0 0 0 0 0 0 0 0 0 0 0 0 0 0 0 0 0 0 0 0 0 0 0
0 0 0 0 0 0 0 0 0 0 0 0 0 0 0 0 0 0 0 0 0 0 0 0 0 0 0 0 0 0 0 0 0 0 0 0 0 0 0 0 0 0 0 0 0 0 0 0 0
0 0 0 0 0 0 0 0 0 0 0 0 0 0 0 0 0 0 0 0 0 0 0 0 0 0 0 0 0 0 0 0 0 0 0 0 0 0 0 0 0 0 0 0 0 0 0 0 0
0 0 0 0 0 0 0 0 0 0 0 0 0 0 0 0 0 0 0 0 0 0 0 0 0 0 0 0 0 0 0 0 0 0 0 0 0 0 0 0 0 0 0 0 0 0 0 0 0
0 0 0 0 0 0 0 0 0 0 0 0 0 0 0 0 0 0 0 0 0 0 0 0 0 0 0 0 0 0 0 0 0 0 0 0 0 0 0 0 0 0 0 0 0 0 0 0 0
0 0 0 0 0 0 0 0 0 0 0 0 0 0 0 0 0 0 0 0 0 0 0 0 0 0 0 0 0 0 0 0 0 0 0 0 0 0 0 0 0 0 0 0 0 0 0 0 0
0 0 0 0 0 0 0 0 0 0 0 0 0 0 0 0 0 0 0 0 0 0 0 0 0 0 0 0 0 0 0 0 0 0 0 0 0 0 0 0 0 0 0 0 0 0 0 0 0
0 0 0 0 0 0 0 0 0 0 0 0 0 0 0 0 0 0 0 0 0 0 0 0 0 0 0 0 0 0 0 0 0 0 0 0 0 0 0 0 0 0 0 0 0 0 0 0 0
0 0 0 0 0 0 0 0 0 0 0 0 0 0 0 0 0 0 0 0 0 0 0 0 0 0 0 0 0 0 0 0 0 0 0 0 0 0 0 0 0 0 0 0 0 0 0 0 0
0 0 0 0 0 0 0 0 0 0 0 0 0 0 0 0 0 0 0 0 0 0 0 0 0 0 0 0 0 0 0 0 0 0 0 0 0 0 0 0 0 0 0 0 0 0 0 0 0
0 0 0 0 0 0 0 0 0 0 0 0 0 0 0 0 0 0 0 0 0 0 0 0 0 0 0 0 0 0 0 0 0 0 0 0 0 0 0 0 0 0 0 0 0 0 0 0 0
0 0 0 0 0 0 0 0 0 0 0 0 0 0 0 0 0 0 0 0 0 0 0 0 0 0 0 0 0 0 0 0 0 0 0 0 0 0 0 0 0 0 0 0 0 0 0 0 0
0 0 0 0 0 0 0 0 0 0 0 0 0 0 0 0 0 0 0 0 0 0 0 0 0 0 0 0 0 0 0 0 0 0 0 0 0 0 0 0 0 0 0 0 0 0 0 0 0
0 0 0 0 0 0 0 0 0 0 0 0 0 0 0 0 0 0 0 0 0 0 0 0 0 0 0 0 0 0 0 0 0 0 0 0 0 0 0 0 0 0 0 0 0 0 0 0 0
0 0 0 0 0 0 0 0 0 0 0 0 0 0 0 0 0 0 0 0 0 0 0 0 0 0 0 0 0 0 0 0 0 0 0 0 0 0 0 0 0 0 0 0 0 0 0 0 0
0 0 0 0 0 0 0 0 0 0 0 0 0 0 0 0 0 0 0 0 0 0 0 0 0 0 0 0 0 0 0 0 0 0 0 0 0 0 0 0 0 0 0 0 0 0 0 0 0
0 0 0 0 0 0 0 0 0 0 0 0 0 0 0 0 0 0 0 0 0 0 0 0 0 0 0 0 0 0 0 0 0 0 0 0 0 0 0 0 0 0 0 0 0 0 0 0 0
0 0 0 0 0 0 0 0 0 0 0 0 0 0 0 0 0 0 0 0 0 0 0 0 0 0 0 0 0 0 0 0 0 0 0 0 0 0 0 0 0 0 0 0 0 0 0 0 0
0 0 0 0 0 0 0 0 0 0 0 0 0 0 0 0 0 0 0 0 0 0 0 0 0 0 0 0 0 0 0 0 0 0 0 0 0 0 0 0 0 0 0 0 0 0 0 0 0
0 0 0 0 0 0 0 0 0 0 0 0 0 0 0 0 0 0 0 0 0 0 0 0 0 0 0 0 0 0 0 0 0 0 0 0 0 0 0 0 0 0 0 0 0 0 0 0 0
0 0 0 0 0 0 0 0 0 0 0 0 0 0 0 0 0 0 0 0 0 0 0 0 0 0 0 0 0 0 0 0 0 0 0 0 0 0 0 0 0 0 0 0 0 0 0 0 0
0 0 0 0 0 0 0 0 0 0 0 0 0 0 0 0 0 0 0 0 0 0 0 0 0 0 0 0 0 0 0 0 0 0 0 0 0 0 0 0 0 0 0 0 0 0 0 0 0
0 0 0 0 0 0 0 0 0 0 0 0 0 0 0 0 0 0 0 0 0 0 0 0 0 0 0 0 0 0 0 0 0 0 0 0 0 0 0 0 0 0 0 0 0 0 0 0 0
0 0 0 0 0 0 0 0 0 0 0 0 0 0 0 0 0 0 0 0 0 0 0 0 0 0 0 0 0 0 0 0 0 0 0 0 0 0 0 0 0 0 0 0 0 0 0 0 0
0 0 0 0 0 0 0 0 0 0 0 0 0 0 0 0 0 0 0 0 0 0 0 0 0 0 0 0 0 0 0 0 0 0 0 0 0 0 0 0 0 0 0 0 0 0 0 0 0
0 0 0 0 0 0 0 0 0 0 0 0 0 0 0 0 0 0 0 0 0 0 0 0 0 0 0 0 0 0 0 0 0 0 0 0 0 0 0 0 0 0 0 0 0 0 0 0 0
0 0 0 0 0 0 0 0 0 0 0 0 0 0 0 0 0 0 0 0 0 0 0 0 0 0 0 0 0 0 0 0 0 0 0 0 0 0 0 0 0 0 0 0 0 0 0 0 0
0 0 0 0 0 0 0 0 0 0 0 0 0 0 0 0 0 0 0 0 0 0 0 0 0 0 0 0 0 0 0 0 0 0 0 0 0 0 0 0 0 0 0 0 0 0 0 0 0
0 0 0 0 0 0 0 0 0 0 0 0 0 0 0 0 0 0 0 0 0 0 0 0 0 0 0 0 0 0 0 0 0 0 0 0 0 0 0 0 0 0 0 0 0 0 0 0 0
0 0 0 0 0 0 0 0 0 0 0 0 0 0 0 0 0 0 0 0 0 0 0 0 0 0 0 0 0 0 0 0 0 0 0 0 0 0 0 0 0 0 0 0 0 0 0 0 0
Wind_Speed
4 3 3 3 4 4 5 3 2 3 2 1 1 1 0 1 2 3 4 2 2 1 1 1 3 3 3 5 5 6 6 5 6 6 6 5 5 4 4 4 4 4 4 5 6 6 7 7 7
3 2 3 3 5 6 5 4 4 2 2 2 1 0 1 2 4 4 2 3 2 1 1 2 4 3 4 5 5 5 5 5 5 5 5 5 5 5 4 3 3 3 4 5 5 6 6 7 7
1 2 2 3 5 6 3 3 3 2 2 2 2 1 1 2 3 2 3 2 1 1 1 3 4 4 5 5 5 5 5 5 5 5 5 5 5 5 4 4 3 3 3 4 5 5 6 6 6
2 3 3 5 6 4 2 2 2 4 3 1 2 3 3 3 3 3 2 1 1 2 2 4 4 4 5 5 5 5 5 5 5 4 4 4 4 4 4 4 3 3 2 4 5 5 5 6 6
2 3 5 5 6 3 1 0 2 3 2 2 2 2 3 3 3 3 2 1 2 2 2 4 4 5 5 5 6 6 5 5 5 5 4 4 4 4 4 4 3 3 2 2 4 5 5 5 5
3 3 6 7 7 4 2 2 3 3 2 1 1 2 3 3 3 3 2 2 2 2 3 3 4 4 5 5 5 6 6 5 5 5 5 4 4 4 4 4 3 3 2 2 3 4 4 5 5
3 3 5 6 6 5 2 2 3 3 2 1 1 2 4 3 3 2 2 3 3 3 3 2 2 3 5 6 6 6 6 6 6 6 6 6 5 4 4 4 4 3 1 2 3 4 4 4 4
2 3 5 6 7 5 2 2 0 2 1 2 1 1 1 2 2 2 2 3 3 3 3 2 2 2 2 3 6 6 6 6 6 6 7 6 5 5 4 4 4 4 2 1 2 3 4 4 4
3 5 7 6 5 3 3 3 1 1 2 2 1 3 4 2 2 3 2 2 3 3 2 2 2 2 2 2 3 4 4 5 5 4 5 3 2 3 2 4 5 4 4 2 2 3 3 3 5
3 5 6 2 2 2 3 2 2 3 3 2 1 2 3 2 2 2 2 1 1 2 2 2 2 2 2 2 1 1 2 2 2 2 3 2 2 2 3 3 4 4 3 2 3 2 3 2 2
2 4 3 2 1 1 2 1 1 3 3 2 2 0 1 2 2 1 1 1 1 1 2 2 2 2 1 1 1 1 1 1 2 3 3 2 2 2 2 1 1 1 1 0 1 1 1 1 1
3 2 2 1 1 1 1 2 1 2 2 2 0 1 2 2 1 0 1 1 2 2 2 2 2 2 2 1 1 1 1 1 2 2 3 2 2 2 2 1 2 1 1 1 0 0 1 2 2
4 3 1 1 0 1 1 2 2 2 1 1 2 2 2 1 1 0 1 1 1 2 2 2 1 1 1 1 1 1 1 1 1 2 2 2 1 2 1 1 1 2 1 1 0 0 1 2 2
2 3 2 2 2 2 3 4 3 2 1 1 2 2 1 1 0 1 1 2 1 1 2 2 1 1 1 1 1 1 1 1 1 1 2 2 1 1 2 1 1 1 1 1 0 0 0 1 2
2 3 3 3 3 2 3 5 4 2 2 1 1 1 1 0 1 1 2 2 2 2 2 2 1 1 1 1 1 1 1 1 1 2 2 2 2 2 2 1 1 1 1 1 0 1 0 0 1
3 5 5 3 3 3 6 8 2 2 2 2 1 1 0 0 1 2 2 2 3 2 2 2 1 1 1 1 1 1 1 1 1 1 2 2 2 2 1 1 1 1 1 1 1 0 1 1 0
5 5 6 4 3 3 6 7 2 2 3 2 2 1 1 1 2 3 3 3 3 2 2 1 2 1 1 1 1 1 1 1 1 1 2 2 2 2 1 1 1 1 0 0 1 0 0 1 0
5 6 6 6 2 4 6 7 4 3 4 4 3 2 1 1 2 3 4 4 4 3 3 2 2 2 1 1 1 1 1 1 1 1 2 3 2 2 1 1 1 1 0 1 0 0 1 1 0
4 6 7 5 2 5 7 8 7 4 4 4 3 2 2 1 2 3 4 4 4 4 4 4 3 3 1 1 1 1 1 1 1 1 2 2 3 2 1 1 1 1 0 0 0 0 1 1 0
4 6 6 4 2 4 6 9 7 4 4 4 4 3 2 1 2 3 4 4 4 4 4 4 3 3 2 1 1 1 1 1 1 1 2 2 3 2 1 1 1 1 0 0 0 0 0 0 0
5 6 6 5 4 4 6 8 6 4 3 2 2 2 2 2 1 2 2 3 4 4 4 3 3 3 2 2 1 1 1 1 1 1 1 2 2 2 2 2 2 1 1 1 1 1 1 1 1
5 3 5 5 5 3 4 7 5 4 4 3 2 2 2 2 1 1 2 2 3 3 3 3 3 3 2 2 1 1 1 1 2 2 1 2 2 2 2 2 2 2 1 1 2 2 2 2 2
3 2 3 5 5 5 5 7 4 4 5 4 2 2 2 2 1 1 2 2 3 3 3 3 3 3 3 2 2 2 2 2 2 2 2 2 1 1 2 2 2 2 2 2 2 2 2 2 2
1 1 2 3 4 6 5 7 6 4 5 4 3 2 2 2 1 1 2 2 3 3 3 3 3 3 3 3 3 3 3 3 2 2 2 2 1 1 1 2 2 2 2 2 2 2 2 2 3
2 2 2 3 4 4 1 6 6 0 2 3 4 3 2 2 2 1 2 2 3 3 3 3 3 3 4 4 3 3 3 3 3 3 2 2 2 2 2 2 2 2 2 2 2 2 2 2 2
2 3 3 4 4 3 3 7 3 1 2 3 3 2 2 3 2 2 2 2 3 3 3 3 3 4 4 4 4 4 3 3 3 3 2 3 2 2 3 3 3 2 2 2 2 2 2 2 2
2 3 2 2 3 6 5 5 4 3 2 3 3 2 3 3 3 3 3 3 3 3 3 3 3 4 4 4 4 4 3 3 3 3 2 2 2 2 3 3 3 2 2 3 3 2 3 2 3
2 1 2 3 4 6 6 6 4 3 4 3 3 3 3 3 3 4 3 3 3 3 4 3 3 3 4 4 3 3 3 3 3 3 2 2 2 2 3 3 3 2 3 3 3 3 3 3 3
3 2 3 3 4 6 7 4 1 3 3 4 4 4 4 4 4 4 4 4 4 4 4 4 3 3 3 3 3 3 3 3 3 2 3 2 2 2 2 2 3 3 3 3 3 3 4 4 4
4 4 4 4 5 5 7 5 2 1 3 4 5 5 5 4 5 5 4 4 4 4 4 4 4 3 3 3 3 3 3 3 3 3 3 3 2 2 2 2 2 2 3 3 3 4 4 5 4
Wind_Direction
324 304 258 235 219 220 224 197 195 158 156 78 38 314 339 11 337 40 60 37 15 69 100 94 30 51 68 67 66 63 60 63 63 59 56 58 66 73 77 82 95 99 111 124 131 127 123 119 116
319 281 231 230 232 220 205 194 191 169 95 119 114 206 120 82 29 53 64 9 6 53 84 73 43 60 73 69 66 62 58 59 62 61 57 54 56 59 66 70 86 93 109 120 127 129 128 123 121
269 281 236 215 228 237 196 153 167 126 120 184 135 49 14 58 61 55 26 349 38 77 74 69 41 65 74 69 62 59 54 52 57 63 59 54 54 53 55 51 55 80 103 117 120 127 130 130 125
235 198 214 229 220 236 258 129 147 161 147 160 177 129 104 49 25 26 27 26 100 99 78 72 45 63 73 70 62 54 52 48 52 57 55 50 51 53 50 46 42 52 88 124 125 128 126 131 130
242 220 207 217 227 219 221 275 194 195 162 135 189 149 122 81 39 49 62 81 87 84 73 77 53 57 66 71 66 59 52 46 47 49 45 41 38 41 47 43 37 36 55 116 130 134 128 128 134
196 221 222 220 216 209 200 212 210 204 160 131 192 172 111 78 47 41 62 76 79 67 63 79 57 49 53 64 61 56 49 45 44 44 38 31 26 27 34 39 35 32 50 115 126 134 136 134 139
220 215 231 225 219 216 193 189 217 209 185 120 301 179 127 86 35 35 69 69 63 61 61 64 74 71 59 57 54 51 47 43 42 38 33 27 21 20 23 28 26 21 30 121 135 137 129 128 135
263 209 208 216 220 221 160 157 263 257 168 59 302 242 111 44 34 70 77 70 57 48 46 49 51 57 66 69 55 49 47 45 43 39 32 28 29 30 25 21 26 20 20 87 118 132 131 127 123
235 223 219 214 217 199 152 167 105 30 122 105 49 11 23 66 100 98 80 68 54 38 29 33 39 44 42 55 56 52 51 45 41 41 35 18 10 16 15 27 22 20 23 54 88 122 133 138 134
212 222 227 222 228 177 155 179 152 174 171 175 145 50 55 96 115 107 85 58 31 12 10 15 22 29 37 41 51 38 37 40 30 27 21 10 5 9 357 33 24 18 23 52 66 104 141 171 159
189 214 202 208 226 201 177 176 189 216 224 252 257 186 98 102 116 125 85 12 357 357 8 8 11 21 29 34 36 27 23 22 17 19 14 7 5 3 352 354 16 3 359 65 95 167 165 150 130
179 198 224 219 229 239 221 189 190 250 290 351 356 127 138 136 129 157 348 358 357 0 2 9 10 17 25 19 31 26 21 18 14 17 12 7 7 353 349 341 343 335 328 312 300 278 165 144 136
201 202 226 236 187 229 225 231 239 245 295 38 105 130 149 155 167 298 348 350 351 358 357 2 8 20 31 30 8 22 18 13 6 11 13 6 2 348 337 333 336 335 348 345 323 315 177 159 143
181 191 211 249 241 241 237 250 232 241 199 142 131 146 170 180 242 329 355 341 335 341 347 3 8 10 14 18 11 17 14 14 4 16 14 3 352 348 332 330 343 352 348 339 339 54 273 169 148
184 199 214 238 239 209 228 242 230 229 210 204 167 184 188 278 338 335 333 332 327 341 358 3 353 360 2 359 8 17 19 9 12 15 11 7 2 348 332 327 354 359 342 322 317 127 118 111 141
196 217 224 215 233 212 238 250 195 180 212 215 235 251 251 331 344 344 343 340 337 347 1 12 8 1 11 7 9 28 28 18 13 5 4 6 8 354 345 349 354 354 335 334 16 81 138 121 129
203 230 240 229 219 234 237 256 221 226 229 237 249 263 276 329 352 354 354 359 -0 359 2 12 20 8 26 18 21 37 37 20 8 8 4 354 351 353 4 359 358 342 336 20 23 39 104 123 94
224 234 241 241 237 250 242 253 259 240 241 252 259 267 284 322 347 5 12 16 16 16 19 21 33 23 23 27 22 40 45 27 7 7 7 358 353 359 3 8 358 342 345 53 51 65 90 120 115
253 245 253 260 290 265 254 260 265 252 248 250 256 263 279 312 10 26 24 27 28 23 24 23 24 22 17 356 333 307 341 348 355 3 4 357 353 356 359 350 340 321 324 40 59 69 98 75 172
255 255 265 275 286 272 270 267 261 246 246 254 252 248 266 316 17 26 23 28 25 21 15 15 14 14 7 339 320 305 302 289 321 347 355 357 348 343 340 330 306 300 318 58 85 165 233 2 278
251 256 265 276 291 248 271 256 228 210 206 231 253 255 249 277 323 5 18 20 19 14 6 2 360 359 356 345 336 357 328 301 312 330 341 346 332 324 330 320 309 311 286 251 240 242 228 223 226
249 257 258 257 258 251 256 273 224 211 223 226 249 267 270 282 307 346 359 5 3 1 0 357 358 359 354 349 321 301 294 294 299 304 305 315 316 317 319 308 307 298 279 260 247 247 250 233 229
281 305 262 259 253 265 231 257 248 201 228 232 245 273 283 289 300 327 338 346 354 1 2 359 1 1 356 345 322 296 288 292 300 299 296 302 308 311 313 306 294 291 283 272 261 253 247 240 239
247 238 242 230 235 249 235 243 263 205 228 235 244 270 300 300 306 319 333 346 353 1 6 4 4 358 352 343 327 311 302 295 291 294 295 295 303 302 307 294 284 284 285 279 269 256 250 247 241
239 250 246 224 225 244 189 244 262 168 251 255 256 263 302 309 302 312 328 338 346 352 354 350 349 347 342 336 329 313 299 291 277 281 286 290 294 297 305 296 288 289 288 286 280 267 257 251 246
228 250 262 274 272 279 221 247 270 285 281 287 272 272 316 320 320 320 317 320 330 335 332 332 330 329 329 324 323 318 304 291 285 280 281 281 284 294 303 293 285 284 282 279 268 265 261 255 248
209 217 306 289 288 269 246 255 267 245 260 283 286 293 309 311 315 311 309 316 321 319 317 310 307 314 320 318 317 319 315 300 291 289 279 280 289 297 296 288 285 282 274 267 262 260 261 255 250
298 186 198 226 261 268 265 258 262 240 259 277 293 301 312 312 310 310 308 309 313 310 305 302 298 301 308 312 313 314 310 300 289 281 278 281 290 298 288 282 276 271 264 257 254 257 260 255 251
181 196 230 233 266 272 280 277 358 269 282 287 301 312 316 319 315 310 305 306 314 315 308 304 301 303 307 312 314 311 311 302 288 281 279 280 282 292 288 284 274 270 267 258 251 251 251 249 249
251 236 222 243 243 250 273 281 70 283 306 304 309 315 314 314 312 305 306 313 318 315 313 308 304 301 305 310 311 306 308 302 289 284 281 276 278 282 281 279 273 271 271 268 259 255 253 252 253